Location: Katowice
(50.2611°N, 19.0242°E)
Time: 09:20:22
(UTC+02:00)

A-11 Canister half - Pass Details

Date: 24 July 2019
Orbit: 1526 x 1682 km, 47.3° (Epoch: 25 August)

Event Time Altitude Azimuth Distance (km) Brightness Sun altitude
Rises 23:06:59 0° 263° (W) 4,906 11.9 -16.3°
Reaches altitude 10° 23:10:10 10° 262° (W) 3,904 11.3 -16.5°
Maximum altitude 23:20:07 76° 179° (S) 1,662 9.0 -17.2°
Drops below altitude 10° 23:29:44 10° 97° (E) 3,781 10.8 -17.7°
Sets 23:32:46 0° 96° (E) 4,746 11.3 -17.9°
